Find Kuiper-00126

NORAD ID: 65955 Int'l Des: 2025-228 Owner: KUIP Country: US Constellation: amazon-leo operational
LEOCIRCULAR

現在のビュー

3D地球を読み込み中...

About Kuiper-00126

Kuiper-00126 (NORAD 65955) is a amazon-leo constellation satellite launched Oct 14, 2025 by KUIP of US. It operates in LEO, CIRCULAR orbit with a mass of 490.00 kg.

次回通過

Passes for default location (London). Set your location on the main map for personalized predictions.

高度履歴

Loading altitude history...

軌道要素

1 65955U 25228J 26262.60728461 .00000784 00000-0 13187-3 0 9993
2 65955 51.8954 223.0804 0001076 82.2500 277.8584 14.79924207 51949
Epoch: Sep 19, 2026 • Age: 49 hours

現在のステータス

高度 631.0 km
遠地点 / 近地点 N/A
速度 7.55 km/s
衛星直下点 32.47°N, 12.49°E
打ち上げ日 Oct 14, 2025
運用期間 0.9 years
タイプ internet

技術仕様

分類 Payload
質量 490.00 kg
形状 ? Box + 2 pan
製造者 KUIP
バスタイプ Kuiper
フェーズステータス In Orbit
所有者/国 KUIP/US

Most Searched